KF0JJO Weather Reports


Display with metric or nautical units.
time (UTC)temp
F
wind
direction
speed
MPH
gust
MPH
rain 1hr
in
rain 24hr
in
rain mn
in
humidity
%
barometer
mb
20260502233506 66 29 0.0 2.0 0.00 0.00 0.00 29 1042.2
20260502233004 66 30 0.0 1.0 0.00 0.00 0.00 29 1042.0
20260502232500 66 38 0.0 1.0 0.00 0.00 0.00 28 1042.1
20260502231957 66 39 1.0 1.0 0.00 0.00 0.00 28 1042.1
20260502231454 66 32 1.0 1.0 0.00 0.00 0.00 29 1042.1
20260502230952 66 32 0.0 0.0 0.00 0.00 0.00 29 1042.5
20260502230450 66 31 0.0 1.0 0.00 0.00 0.00 28 1042.2
20260502225948 66 32 0.0 1.0 0.00 0.00 0.00 28 1042.3
20260502225444 66 32 0.0 1.0 0.00 0.00 0.00 29 1042.4
20260502224941 66 31 0.0 1.0 0.00 0.00 0.00 29 1042.4
20260502224437 66 32 0.0 1.0 0.00 0.00 0.00 28 1042.4
20260502223934 66 31 0.0 1.0 0.00 0.00 0.00 28 1042.4
20260502223432 66 44 0.0 1.0 0.00 0.00 0.00 28 1042.5
20260502222930 66 30 0.0 1.0 0.00 0.00 0.00 28 1042.6
20260502222427 66 41 0.0 2.0 0.00 0.00 0.00 28 1042.5
20260502221922 66 30 0.0 1.0 0.00 0.00 0.00 27 1042.7
20260502221419 66 21 0.0 3.0 0.00 0.00 0.00 27 1042.9
20260502220916 67 31 0.0 1.0 0.00 0.00 0.00 28 1042.7
20260502220412 67 32 0.0 0.0 0.00 0.00 0.00 27 1043.1
20260502215909 68 29 0.0 3.0 0.00 0.00 0.00 27 1042.9
20260502215406 69 31 0.0 2.0 0.00 0.00 0.00 27 1043.2
20260502214903 69 31 0.0 2.0 0.00 0.00 0.00 26 1043.1
20260502214359 69 33 0.0 1.0 0.00 0.00 0.00 26 1043.2
20260502213857 70 35 0.0 1.0 0.00 0.00 0.00 25 1043.0
20260502213354 71 36 0.0 1.0 0.00 0.00 0.00 26 1043.3
20260502212853 71 36 2.0 2.0 0.00 0.00 0.00 24 1043.5
20260502212351 71 35 0.0 2.0 0.00 0.00 0.00 25 1043.4
20260502211847 70 30 1.0 2.0 0.00 0.00 0.00 26 1043.3
20260502211343 68 32 0.0 3.0 0.00 0.00 0.00 27 1043.7
20260502210841 68 30 1.0 3.0 0.00 0.00 0.00 26 1043.6
20260502210338 69 35 0.0 1.0 0.00 0.00 0.00 26 1043.9
20260502205835 70 29 0.0 2.0 0.00 0.00 0.00 27 1043.9
20260502205331 70 26 0.0 2.0 0.00 0.00 0.00 25 1044.0
20260502204828 70 28 0.0 1.0 0.00 0.00 0.00 25 1043.9
20260502204325 69 18 1.0 2.0 0.00 0.00 0.00 25 1044.3
20260502203822 69 42 1.0 2.0 0.00 0.00 0.00 24 1044.4
20260502203320 69 37 2.0 2.0 0.00 0.00 0.00 24 1044.4
20260502202820 69 31 1.0 1.0 0.00 0.00 0.00 26 1044.3
20260502202319 69 317 2.0 3.0 0.00 0.00 0.00 26 1044.6
20260502201816 69 43 1.0 2.0 0.00 0.00 0.00 25 1044.8
20260502201312 69 25 0.0 3.0 0.00 0.00 0.00 24 1044.7
20260502200808 69 31 1.0 2.0 0.00 0.00 0.00 25 1044.6
20260502200304 69 28 0.0 3.0 0.00 0.00 0.00 26 1045.1
20260502195803 68 23 0.0 2.0 0.00 0.00 0.00 28 1045.3
20260502195259 68 24 1.0 1.0 0.00 0.00 0.00 26 1045.4
20260502194755 68 33 1.0 2.0 0.00 0.00 0.00 23 1045.3
20260502194253 68 32 1.0 3.0 0.00 0.00 0.00 26 1045.4
20260502193748 66 24 1.0 2.0 0.00 0.00 0.00 27 1045.4
20260502193246 66 41 1.0 2.0 0.00 0.00 0.00 25 1045.7
20260502192746 67 35 0.0 2.0 0.00 0.00 0.00 26 1045.7
20260502192244 66 27 0.0 1.0 0.00 0.00 0.00 28 1046.0
20260502191740 66 34 0.0 1.0 0.00 0.00 0.00 27 1045.9
20260502191238 66 22 2.0 2.0 0.00 0.00 0.00 28 1046.1
20260502190735 66 30 0.0 2.0 0.00 0.00 0.00 26 1046.1
20260502190233 66 28 0.0 1.0 0.00 0.00 0.00 27 1046.3
20260502185733 65 36 1.0 2.0 0.00 0.00 0.00 26 1046.3
20260502185229 65 31 2.0 3.0 0.00 0.00 0.00 27 1046.4
20260502184726 65 29 1.0 3.0 0.00 0.00 0.00 28 1046.7
20260502184221 65 34 2.0 2.0 0.00 0.00 0.00 26 1046.7
20260502183718 65 25 0.0 2.0 0.00 0.00 0.00 27 1046.7
20260502183214 66 31 0.0 1.0 0.00 0.00 0.00 27 1046.8
20260502182710 65 41 1.0 2.0 0.00 0.00 0.00 26 1047.0
20260502182205 64 9 2.0 2.0 0.00 0.00 0.00 26 1047.1
20260502181703 64 29 0.0 1.0 0.00 0.00 0.00 27 1047.3
20260502181202 64 29 0.0 2.0 0.00 0.00 0.00 29 1047.1
20260502180658 63 29 0.0 1.0 0.00 0.00 0.00 30 1047.2
20260502180156 63 30 1.0 2.0 0.00 0.00 0.00 27 1047.3
20260502170120 60 31 1.0 2.0 0.00 0.00 0.00 28 1048.5
20260502164106 58 53 1.0 2.0 0.00 0.00 0.00 30 1048.6
20260502163603 58 53 2.0 3.0 0.00 0.00 0.00 30 1048.8
20260502163059 58 33 0.0 1.0 0.00 0.00 0.00 31 1048.8
20260502162556 58 29 1.0 3.0 0.00 0.00 0.00 30 1048.7
20260502162054 58 29 1.0 1.0 0.00 0.00 0.00 31 1049.0
20260502161550 57 24 0.0 2.0 0.00 0.00 0.00 33 1048.8
20260502161048 57 87 1.0 2.0 0.00 0.00 0.00 31 1049.0
20260502160546 57 25 1.0 2.0 0.00 0.00 0.00 31 1049.0
20260502151953 55 22 0.0 1.0 0.00 0.00 0.00 36 1049.5
20260502151449 55 34 0.0 1.0 0.00 0.00 0.00 36 1049.4
20260502150947 55 30 0.0 0.0 0.00 0.00 0.00 35 1049.4
20260502150444 55 35 1.0 1.0 0.00 0.00 0.00 34 1049.3
20260502130329 47 32 0.0 0.0 0.00 0.00 0.00 47 1050.0
20260502123814 43 34 0.0 0.0 0.00 0.00 0.00 56 1050.1
20260502123312 42 34 0.0 0.0 0.00 0.00 0.00 58 1050.1
20260502122808 42 34 0.0 0.0 0.00 0.00 0.00 59 1050.0
20260502122306 41 34 0.0 0.0 0.00 0.00 0.00 59 1050.1
20260502121803 41 34 0.0 0.0 0.00 0.00 0.00 60 1050.1
20260502121300 40 34 0.0 0.0 0.00 0.00 0.00 62 1050.1
20260502120757 39 34 0.0 0.0 0.00 0.00 0.00 65 1050.0
20260502120253 38 32 0.0 0.0 0.00 0.00 0.00 68 1050.2
20260502115751 37 33 0.0 0.0 0.00 0.00 0.00 71 1050.1
20260502115248 36 32 0.0 0.0 0.00 0.00 0.00 74 1050.1
20260502114744 35 32 0.0 0.0 0.00 0.00 0.00 75 1050.0
20260502114241 35 33 0.0 0.0 0.00 0.00 0.00 76 1050.2
20260502113738 35 32 0.0 0.0 0.00 0.00 0.00 76 1050.1
20260502113236 35 32 0.0 0.0 0.00 0.00 0.00 76 1050.1
20260502112734 35 32 0.0 0.0 0.00 0.00 0.00 76 1050.0
20260502112231 35 33 0.0 0.0 0.00 0.00 0.00 76 1049.9
20260502111728 35 32 0.0 0.0 0.00 0.00 0.00 76 1050.0
20260502111226 35 32 0.0 0.0 0.00 0.00 0.00 76 1050.1
20260502110723 35 33 0.0 0.0 0.00 0.00 0.00 76 1050.0
20260502110221 35 33 0.0 0.0 0.00 0.00 0.00 76 1049.9
20260502105718 35 33 0.0 0.0 0.00 0.00 0.00 76 1049.8
20260502105214 35 33 0.0 0.0 0.00 0.00 0.00 76 1049.9
20260502104712 35 33 0.0 0.0 0.00 0.00 0.00 76 1049.9
20260502104210 35 33 0.0 0.0 0.00 0.00 0.00 76 1049.7
20260502103707 35 33 0.0 0.0 0.00 0.00 0.00 75 1049.7
20260502103205 35 33 0.0 0.0 0.00 0.00 0.00 75 1049.8
20260502102701 35 33 0.0 0.0 0.00 0.00 0.00 75 1049.9
20260502102158 35 33 0.0 0.0 0.00 0.00 0.00 76 1049.8
20260502101656 35 33 0.0 0.0 0.00 0.00 0.00 75 1049.7
20260502101154 35 33 0.0 0.0 0.00 0.00 0.00 75 1049.9
20260502100652 36 33 0.0 0.0 0.00 0.00 0.00 74 1049.8
20260502100150 36 33 0.0 0.0 0.00 0.00 0.00 74 1049.8
20260502091124 39 33 0.0 0.0 0.00 0.00 0.00 66 1049.7
20260502090621 39 33 0.0 0.0 0.00 0.00 0.00 64 1049.4
20260502090118 40 33 0.0 0.0 0.00 0.00 0.00 63 1049.4
20260502071516 38 32 0.0 0.0 0.00 0.00 0.00 67 1049.9
20260502071014 38 32 0.0 0.0 0.00 0.00 0.00 66 1049.8
20260502070511 39 32 0.0 0.0 0.00 0.00 0.00 65 1049.9
20260502070009 39 32 0.0 0.0 0.00 0.00 0.00 64 1050.0
20260502065508 40 32 0.0 0.0 0.00 0.00 0.00 64 1049.9
20260502065005 40 32 0.0 0.0 0.00 0.00 0.00 63 1050.0
20260502064504 41 32 0.0 1.0 0.00 0.00 0.00 63 1049.9
20260502064000 41 32 0.0 0.0 0.00 0.00 0.00 62 1050.1
20260502063458 42 31 0.0 0.0 0.00 0.00 0.00 61 1050.0
20260502062955 42 30 0.0 0.0 0.00 0.00 0.00 60 1049.9
20260502062452 43 29 0.0 0.0 0.00 0.00 0.00 58 1050.1
20260502061951 43 29 0.0 0.0 0.00 0.00 0.00 56 1050.1
20260502061449 43 29 0.0 0.0 0.00 0.00 0.00 57 1050.0
20260502060944 43 29 0.0 0.0 0.00 0.00 0.00 57 1050.0
20260502060439 44 29 0.0 0.0 0.00 0.00 0.00 56 1050.2
20260502055937 44 29 0.0 0.0 0.00 0.00 0.00 56 1050.1
20260502055435 44 30 0.0 0.0 0.00 0.00 0.00 56 1049.9
20260502054934 43 29 0.0 0.0 0.00 0.00 0.00 57 1050.2
20260502054432 43 31 0.0 0.0 0.00 0.00 0.00 57 1050.1
20260502053929 42 31 0.0 0.0 0.00 0.00 0.00 58 1050.1
20260502053426 42 31 0.0 0.0 0.00 0.00 0.00 58 1050.1
20260502052924 42 31 0.0 0.0 0.00 0.00 0.00 58 1050.1
20260502052422 42 31 0.0 0.0 0.00 0.00 0.00 57 1050.1
20260502051920 42 31 0.0 0.0 0.00 0.00 0.00 56 1050.0
20260502051418 42 31 0.0 0.0 0.00 0.00 0.00 55 1050.1
20260502050914 42 31 0.0 0.0 0.00 0.00 0.00 54 1050.2
20260502050410 42 31 0.0 0.0 0.00 0.00 0.00 54 1050.1
20260502045908 42 31 0.0 0.0 0.00 0.00 0.00 54 1050.2
20260502045404 42 31 0.0 0.0 0.00 0.00 0.00 55 1050.2
20260502044901 42 31 0.0 0.0 0.00 0.00 0.00 54 1050.1
20260502044357 42 31 0.0 0.0 0.00 0.00 0.00 54 1050.1
20260502043854 42 31 0.0 0.0 0.00 0.00 0.00 54 1050.1
20260502043352 42 31 0.0 0.0 0.00 0.00 0.00 52 1050.0
20260502042852 42 31 0.0 0.0 0.00 0.00 0.00 51 1050.0
20260502042349 42 31 0.0 0.0 0.00 0.00 0.00 51 1049.9
20260502041846 42 31 0.0 0.0 0.00 0.00 0.00 50 1049.9
20260502041343 43 31 0.0 0.0 0.00 0.00 0.00 49 1050.1
20260502040841 43 31 0.0 0.0 0.00 0.00 0.00 47 1050.0
20260502040338 43 31 0.0 0.0 0.00 0.00 0.00 47 1050.1
20260502035834 44 31 0.0 0.0 0.00 0.00 0.00 47 1050.2
20260502035330 44 31 0.0 0.0 0.00 0.00 0.00 47 1049.9
20260502034828 44 31 0.0 0.0 0.00 0.00 0.00 46 1049.8
20260502034326 44 31 0.0 0.0 0.00 0.00 0.00 45 1050.1
20260502033824 44 31 0.0 0.0 0.00 0.00 0.00 46 1050.1
20260502033322 44 31 0.0 0.0 0.00 0.00 0.00 46 1050.2
20260502032818 44 31 0.0 0.0 0.00 0.00 0.00 45 1050.2
20260502032314 44 31 0.0 0.0 0.00 0.00 0.00 44 1050.2
20260502031812 45 31 0.0 0.0 0.00 0.00 0.00 44 1050.2
20260502031310 45 31 0.0 0.0 0.00 0.00 0.00 44 1050.1
20260502030808 45 31 0.0 0.0 0.00 0.00 0.00 43 1050.1
20260502030306 45 31 0.0 0.0 0.00 0.00 0.00 43 1050.2
20260502025803 45 31 0.0 0.0 0.00 0.00 0.00 43 1050.0
20260502025301 44 31 0.0 0.0 0.00 0.00 0.00 44 1049.9
20260502024758 44 31 0.0 0.0 0.00 0.00 0.00 43 1049.9
20260502024256 45 31 0.0 0.0 0.00 0.00 0.00 44 1050.0
20260502023754 45 31 0.0 0.0 0.00 0.00 0.00 42 1050.2
20260502023251 45 31 0.0 0.0 0.00 0.00 0.00 41 1050.1
20260502022749 45 31 0.0 0.0 0.00 0.00 0.00 41 1050.0
20260502022244 45 31 0.0 0.0 0.00 0.00 0.00 40 1050.1
20260502021742 46 31 0.0 0.0 0.00 0.00 0.00 39 1050.1
20260502021239 46 31 0.0 0.0 0.00 0.00 0.00 39 1050.0
20260502020736 46 32 0.0 0.0 0.00 0.00 0.00 38 1049.9
20260502020234 46 32 0.0 0.0 0.00 0.00 0.00 38 1049.8
20260502015732 47 32 0.0 0.0 0.00 0.00 0.00 38 1049.8
20260502015227 47 32 0.0 0.0 0.00 0.00 0.00 36 1049.7
20260502014725 48 32 0.0 0.0 0.00 0.00 0.00 35 1049.5
20260502014222 48 32 0.0 0.0 0.00 0.00 0.00 35 1049.5
20260502013718 49 32 0.0 0.0 0.00 0.00 0.00 34 1049.3
20260502013213 50 32 0.0 0.0 0.00 0.00 0.00 33 1049.4
20260502012711 50 32 0.0 0.0 0.00 0.00 0.00 31 1049.4
20260502012209 50 29 0.0 0.0 0.00 0.00 0.00 31 1049.4
20260502011705 51 29 0.0 0.0 0.00 0.00 0.00 30 1049.5
20260502011201 51 31 0.0 0.0 0.00 0.00 0.00 31 1049.2
20260502010659 51 28 0.0 1.0 0.00 0.00 0.00 29 1049.4
20260502010155 52 29 0.0 0.0 0.00 0.00 0.00 28 1049.3
20260502005652 52 28 0.0 1.0 0.00 0.00 0.00 27 1049.4
20260502005150 52 8 2.0 2.0 0.00 0.00 0.00 28 1049.4
20260502004646 52 27 0.0 1.0 0.00 0.00 0.00 27 1049.4
20260502004143 52 35 2.0 2.0 0.00 0.00 0.00 26 1049.4
20260502003641 52 32 1.0 2.0 0.00 0.00 0.00 27 1049.2
20260502003138 53 29 0.0 2.0 0.00 0.00 0.00 27 1049.4
20260502002633 53 28 0.0 0.0 0.00 0.00 0.00 26 1049.3
20260502002131 53 31 1.0 1.0 0.00 0.00 0.00 26 1049.4
20260502001629 53 31 0.0 1.0 0.00 0.00 0.00 28 1049.3
20260502001126 53 40 1.0 1.0 0.00 0.00 0.00 27 1049.0
20260502000624 53 29 0.0 2.0 0.00 0.00 0.00 29 1049.3
20260502000121 53 30 0.0 1.0 0.00 0.00 0.00 26 1049.3
20260501235617 54 29 0.0 0.0 0.00 0.00 0.00 27 1049.3
20260501235113 54 25 1.0 2.0 0.00 0.00 0.00 27 1049.3
20260501234608 54 25 1.0 2.0 0.00 0.00 0.00 26 1049.3
20260501234106 54 22 0.0 2.0 0.00 0.00 0.00 26 1049.1